User: anonymous   Login
Location: Skalnate Pleso
(49.1889°N, 20.2450°E)
Time: 21:29:09
(UTC+01:00)
Language:

Iridium 45 - Orbit

View from above orbital plane
View from above orbital plane
View from above satellite
View from above satellite

Ground track
Ground track

The orbit data is extracted from the following two-line orbital elements,

1 25104U 97082A   15026.25779765  .00000303  00000-0  10140-3 0   749
2 25104 087.0264 281.7953 0001949 097.7363 262.4055 14.34219425895252
Epoch (UTC): 26 January 2015 06:11:13
Eccentricity: 0.0001949
inclination: 87.0264°
perigee height: 776 km
apogee height: 779 km
right ascension of ascending node: 281.7953°
argument of perigee: 97.7363°
revolutions per day: 14.34219425
mean anomaly at epoch: 262.4055°
orbit number at epoch: 89525

The dashed part of the orbit path shows where the satellite is in the earth's shadow,  

DLR